Weather in Trylisy

Ukraine / Kyiv Region     49°58′57″N   29°50′33″E
temp.,
°C
wind,
m/s
gust,
m/s
humid.,
%
clouds,
%
prec.,
mm/h
press.,
hPa
HPBL,
m
21 january, fri
fri2123:00−1wsw6128599 0.0 1006615
02:00−3w61284100 0.0 1007649
05:00−5w7148490 0.0 1006701
08:00−4w81585100 0.0 1006923
11:00−3w101677100 0.0 10071088
14:00−2w101682100 0.1 10061124
17:00−3w91686100 0.1 1006968
20:00−3w8158894 0.1 1007880
22 january, sat
sat2223:00−3w81594100 0.3 1007955
02:00−3w71394100 0.9 1007811
05:00−4wnw71287100 0.1 1008722
08:00−5w61289100 0.2 1009543
11:00−4w61188100 0.1 1010736
14:00−3w6990100 0.4 1010699
17:00−4nnw598594 0.3 1012562
20:00−5nw599487 0.4 1014546
23 january, sun
sun2323:00−6nw4893100 0.1 1016385
02:00−5wnw3795100 0.4 1016427
05:00−6nw2297100 0.1 101756
08:00−7nne259898 0.2 1020114
11:00−6n5685100 0.3 1023620
14:00−6nne5683100 0.4 1024802
17:00−7nne4890100 0.1 1027288
20:00−8nne499499 0.1 1030375
24 january, mon
mon2423:00−10nne3897100 0.1 1031226
02:00−10n4898100 0.1 1032201
05:00−10n4109799 0.0 1032263
08:00−10n5129698 0.1 1033314
11:00−7n61287100 0.0 1032408
14:00−6n71283100 0.0 1031575
17:00−7n61288100 0.0 1032448
20:00−8n5109498 0.1 1032395
25 january, tue
tue2523:00−9nnw599682 0.1 1032253
02:00−10nnw379689 0.1 1031205
05:00−10nnw379618 0.1 1031176
08:00−11nw389516 0.1 1030172
11:00−8nw46855 0.0 1029253
14:00−6wnw34775 0.0 1026287
17:00−9sw24925 0.0 102545
20:00−11wsw369081 0.0 102485